Weather History for Oceanside, CA

Change the Weather History Date:

Thursday, August 22, 2013

  Actual Average Record
Temperature  
Mean Temperature 68 °F 69 °F  
Max Temperature 78 °F 77 °F 80 °F (2010)
Min Temperature 58 °F 62 °F 56 °F (2002)
Degree Days  
Heating Degree Days 0 0  
Month to date heating degree days 0 0  
Since 1 June heating degree days 3 30  
Since 1 July heating degree days 0 3  
Cooling Degree Days 3 4  
Month to date cooling degree days 71 96  
Year to date cooling degree days 328 258  
Since 1 June cooling degree days 299 248  
Growing Degree Days 18 (Base 50)    
Moisture  
Dew Point 59 °F    
Average Humidity 72    
Maximum Humidity 90    
Minimum Humidity 54    
Precipitation  
Precipitation 0.00 in 0.01 in 0.00 in (2015)
Month to date precipitation 0.00 0.09  
Year to date precipitation 2.33 9.48  
Since 1 July precipitation 0.01 0.21  
Snow  
Snow 0.00 in - - ()
Month to date snowfall 0.0  
Year to date snowfall 0.0  
Since 1 July snowfall 0.0  
Snow Depth -    
Sea Level Pressure  
Sea Level Pressure 29.87 in    
Wind  
Wind Speed 4 mph (WSW)    
Max Wind Speed 12 mph    
Max Gust Speed 21 mph    
Visibility 10 miles    
Events      
T = Trace of Precipitation, MM = Missing Value Source: NWS Daily Summary

Daily Weather History Graph

Daily Weather History Graph

Search for Another Location

Airport:

Trip Planner

Search our weather history database for the weather conditions in past years. The results will help you decide how hot, cold, wet, or windy it might be!

Date:

Astronomy

Aug. 22, 2013 Rise Set
Actual Time 6:17 AM PDT 7:26 PM PDT
Civil Twilight 5:51 AM PDT 7:52 PM PDT
Nautical Twilight 5:20 AM PDT 8:22 PM PDT
Astronomical Twilight 4:49 AM PDT 8:54 PM PDT
Moon 8:23 PM PDT (8/22) 8:02 AM PDT (8/22)
Length of Visible Light 14h 00m
Length of Day
13h 09m
Waning Gibbous, 96% of the Moon is Illuminated
Aug 22
Waning Gibbous
Aug 28
Last Quarter
Sep 5
New
Sep 12
First Quarter
Sep 19
Full

Hourly Weather History & Observations

Time (PDT) Temp. Dew Point Humidity Pressure Visibility Wind Dir Wind Speed Gust Speed Precip Events Conditions
12:52 AM 62.1 °F 57.9 °F 86% 29.91 in 10.0 mi Calm Calm - N/A   Clear
1:52 AM 64.0 °F 59.0 °F 84% 29.90 in 10.0 mi Calm Calm - N/A   Clear
2:52 AM 63.0 °F 59.0 °F 87% 29.89 in 10.0 mi Calm Calm - N/A   Clear
3:52 AM 61.0 °F 57.0 °F 87% 29.89 in 9.0 mi Calm Calm - N/A   Clear
4:52 AM 60.1 °F 55.9 °F 86% 29.88 in 8.0 mi Calm Calm - N/A   Clear
5:52 AM 59.0 °F 55.0 °F 87% 29.88 in 9.0 mi Variable 3.5 mph - N/A   Clear
6:52 AM 60.1 °F 55.9 °F 86% 29.89 in 6.0 mi NNW 3.5 mph - N/A   Clear
7:52 AM 64.9 °F 57.9 °F 78% 29.89 in 9.0 mi Calm Calm - N/A   Clear
8:52 AM 72.0 °F 60.1 °F 66% 29.89 in 10.0 mi SW 4.6 mph - N/A   Clear
9:52 AM 75.0 °F 60.1 °F 60% 29.89 in 10.0 mi SW 5.8 mph - N/A   Clear
10:52 AM 75.0 °F 61.0 °F 62% 29.91 in 10.0 mi West 8.1 mph - N/A   Clear
11:52 AM 78.1 °F 60.1 °F 54% 29.89 in 10.0 mi SW 6.9 mph - N/A   Clear
12:52 PM 78.1 °F 60.1 °F 54% 29.88 in 10.0 mi West 6.9 mph 16.1 mph N/A   Clear
1:52 PM 75.9 °F 59.0 °F 56% 29.87 in 10.0 mi WNW 11.5 mph 20.7 mph N/A   Clear
2:52 PM 77.0 °F 60.1 °F 56% 29.84 in 10.0 mi Variable 6.9 mph - N/A   Clear
3:52 PM 75.9 °F 59.0 °F 56% 29.82 in 10.0 mi West 6.9 mph - N/A   Clear
4:52 PM 75.0 °F 60.1 °F 60% 29.81 in 10.0 mi WSW 6.9 mph - N/A   Clear
5:52 PM 73.0 °F 60.1 °F 64% 29.81 in 10.0 mi WSW 10.4 mph - N/A   Clear
6:52 PM 71.1 °F 60.1 °F 68% 29.82 in 10.0 mi Variable 4.6 mph - N/A   Clear
7:52 PM 69.1 °F 59.0 °F 70% 29.84 in 10.0 mi Calm Calm - N/A   Clear
8:52 PM 68.0 °F 60.1 °F 76% 29.86 in 10.0 mi Calm Calm - N/A   Clear
9:52 PM 66.9 °F 60.1 °F 79% 29.87 in 10.0 mi Calm Calm - N/A   Clear
10:52 PM 66.9 °F 60.1 °F 79% 29.87 in 10.0 mi Calm Calm - N/A   Clear
11:52 PM 64.9 °F 59.0 °F 81% 29.87 in 10.0 mi Calm Calm - N/A   Clear